{"data":{"norad_id":67574,"epoch":"2026-09-19T09:31:04.386720Z","epoch_age_seconds":167621,"freshness":"FRESH","line1":"1 67574U 26016P   26262.39657855  .00010725  00000+0  33402-3 0  9999","line2":"2 67574  97.2851 321.1105 0000798  82.9388 277.1946 15.33449142 36559","mean_motion":15.33449142,"eccentricity":7.98e-5,"inclination_deg":97.2851,"raan_deg":321.1105,"arg_perigee_deg":82.9388,"mean_anomaly_deg":277.1946,"bstar":0.00033402,"rev_number":3655,"period_min":93.905951006753,"perigee_km":464.98472613352,"apogee_km":466.07697552251,"semimajor_km":6843.667850828,"source":"CELESTRAK","updated_at":"2026-09-20T09:00:43.576783Z"}}